Regional Weather Roundup
Issued by NWS

Home | Current Version | Previous Version | Text Only | Print | Product List | Glossary On
Versions: 1 2 3 4 5 6 7 8 9 10 11 12 13 14 15 16 17 18 19 20 21 22 23 24 25 26 27 28 29 30 31 32 33 34 35 36 37 38 39 40 41 42 43 44 45 46 47 48 49 50
000
ASUS45 KREV 250710
RWRNV
NEVADA REGIONAL WEATHER ROUNDUP
NATIONAL WEATHER SERVICE RENO NV
1100 PM PST WED DEC 24 2014

NOTE: "FAIR" INDICATES FEW OR NO CLOUDS BELOW 12,000 FEET WITH NO
SIGNIFICANT WEATHER AND/OR OBSTRUCTIONS TO VISIBILITY.

NVZ001-003-004-250800-
WESTERN NEVADA

CITY           SKY/WX    TMP DP  RH WIND       PRES   REMARKS
RENO           PTCLDY    33  18  53 NW9       29.96R
CARSON CITY    MOCLDY    32  16  51 NW18G30   29.93S
MINDEN         CLOUDY    30  19  64 N16       29.96
PYRAMID LAKE     N/A     36 N/A N/A NW15        N/A
FALLON         CLOUDY    34  24  67 N9        29.89R
LOVELOCK       MOCLDY    34  19  54 N8        29.88R
HAWTHORNE      CLOUDY    37  23  56 NW20      29.88S
$$

NVZ002-CAZ072-073-250800-
NORTHERN AND CENTRAL SIERRA

CITY           SKY/WX    TMP DP  RH WIND       PRES   REMARKS
S. LAKE TAHOE  CLOUDY    28  16  60 N6        29.90R
TRUCKEE        MOCLDY    23  18  80 E5        29.94R
SQUAW VLY 8000   N/A     16  14  93 VRB16       N/A
SUSANVILLE     CLOUDY   N/A N/A N/A W7          N/A
BLUE CANYON    CLEAR     29  17  61 N5        29.93S
MAMMOTH LAKES  CLOUDY    27  19  74 NW20G25   29.83R
BRIDGEPORT     FAIR      26  10  50 VRB6      29.84S
$$

NVZ030-031-036-250800-
NORTHERN NEVADA

CITY           SKY/WX    TMP DP  RH WIND       PRES   REMARKS
ELKO           CLOUDY    29  21  72 W18G35    29.62R
WINNEMUCCA     CLOUDY    31  18  58 NW18G26   29.85R
WENDOVER       CLOUDY    37  28  70 NW13      29.48R
$$

NVZ035-037-250800-
CENTRAL NEVADA

CITY           SKY/WX    TMP DP  RH WIND       PRES   REMARKS
ELY            CLOUDY    29  27  92 E3        29.57F
EUREKA           N/A     29  25  85 N12       29.65R
$$

NVZ013-014-250800-
SOUTH CENTRAL NEVADA

CITY           SKY/WX    TMP DP  RH WIND       PRES   REMARKS
TONOPAH        MIX PCPN  31  22  69 NW40G51   29.73R
$$

NVZ017-020-022-250800-
SOUTHERN NEVADA

CITY           SKY/WX    TMP DP  RH WIND       PRES   REMARKS
LAS VEGAS      PTCLDY    45  21  38 NE8       29.56F
N. LAS VEGAS   CLEAR     44  19  36 VRB3      29.60F
NELLIS AFB     CLEAR     43  21  42 E8        29.60F
HENDERSON      CLEAR     55  31  39 SW24G32   29.59F
MERCURY        CLEAR     53  30  41 S26G37    29.58S
$$


USA.gov is the U.S. government's official web portal to all federal, state and local government web resources and services.